Regional Weather Roundup
Issued by NWS Jackson, KY

Home | Current Version | Previous Version | Text Only | Print | Product List | Glossary Off
Versions: 1 2 3 4 5 6 7 8 9 10 11 12 13 14 15 16 17 18 19 20 21 22 23 24 25 26 27 28 29 30 31 32 33 34 35 36 37 38 39 40 41 42 43 44 45 46 47 48 49 50

000
ASUS43 KJKL 242211
RWRJKL

EAST KENTUCKY HOURLY WEATHER ROUNDUP
NATIONAL WEATHER SERVICE JACKSON KY
500 PM EST SAT JAN 24 2015

NOTE: "FAIR" INDICATES FEW OR NO CLOUDS BELOW 12,000 FEET WITH
NO SIGNIFICANT WEATHER AND/OR OBSTRUCTIONS TO VISIBILITY.

* THESE REPORTS ARE NOT UNDER NWS QUALITY CONTROL AND MAY NOT
  REPORT WEATHER SUCH AS PRECIPITATION AND FOG.

KYZ079-080-083-085-087-088-110-112-115-119-120-242300
...EASTERN KENTUCKY...

CITY           SKY/WX    TMP DP  RH WIND       PRES   REMARKS
JACKSON        MOCLDY    33  28  81 SW9       29.77R WCI  25
LONDON         CLEAR     40  28  62 SW12      29.79S WCI  33
SOMERSET*      CLEAR     37  30  75 W16       29.83S WCI  28
MONTICELLO*    CLEAR     41  32  70 W15G23    29.85S
MIDDLESBORO*   CLEAR     41  26  55 SW3       29.81F
HARLAN APT*    CLEAR     37  27  65 CALM      29.78F
BLACK MTN*       N/A     27  23  86 SE6         N/A  WCI  20
PIKEVILLE APT* PTCLDY    34  28  80 S6        29.73F WCI  29
BIG SANDY*     CLOUDY    35  29  79 W7        29.74S WCI  29
MOREHEAD APT*  CLOUDY    34  30  86 SW13      29.77R WCI  25
$$

KYZ035-036-041-042-044-050-067-078-099-242300
...CENTRAL KENTUCKY...

CITY           SKY/WX    TMP DP  RH WIND       PRES   REMARKS
MT STERLING*   CLOUDY    34  32  93 W15G22    29.77R WCI  24
FLEMING/MASON* CLOUDY    33  29  88 SW13      29.75R WCI  23
DANVILLE*      CLOUDY    36  30  80 W10G17    29.80S WCI  28
RICHMOND*      CLOUDY    34  30  86 W3        29.79S
LEXINGTON      CLOUDY    34  30  85 SW10      29.77S WCI  26
FRANKFORT      CLOUDY    36  30  79 SW8       29.76R WCI  30
$$

KYZ091>093-OHZ055-061-077-WVZ005-015-034-035-042-242300
...SOUTHERN OHIO/WEST VIRGINIA...

CITY           SKY/WX    TMP DP  RH WIND       PRES   REMARKS
COVINGTON      CLOUDY    39  27  62 W10       29.72S WCI  32
COLUMBUS       DRIZZLE   34  29  82 W17       29.66R HAZE    WCI  23
DAYTON         MOCLDY    35  29  78 W15       29.68S HAZE    WCI  25
WILMINGTON     CLOUDY    35  27  72 W15       29.69R WCI  25
HUNTINGTON     MIX PCPN  32  29  88 SW9G18    29.74R WCI  24
CHARLESTON     MOCLDY    32  27  81 SW9       29.71F WCI  24
PINEVILLE*     PTCLDY    34  29  82 MISG      29.76F
BECKLEY        PTCLDY    30  21  69 W10G20    29.66F WCI  21
BLUEFIELD      PTCLDY    30  23  75 W12       29.66F WCI  20
$$

VAZ002-007-008-TNZ017-027-036-066-071-242300
...SOUTHWEST VIRGINIA/EAST TENNESSEE...

CITY           SKY/WX    TMP DP  RH WIND       PRES   REMARKS
WISE*          PTCLDY    36  23  60 SW10      29.72S WCI  28
JONESVILLE*    CLEAR     39  25  56 SW10      29.81S WCI  32
ABINGDON*      PTCLDY    35  27  74 W14G21    29.75R WCI  25
BRISTOL        PTCLDY    37  26  64 SW13      29.79S WCI  29
KNOXVILLE      CLEAR     43  25  49 SW16      29.86R
OAK RIDGE      CLEAR     45  25  45 W8        29.86R
CROSSVILLE     CLEAR     40  28  62 W9G17     29.84R WCI  34
NASHVILLE      SUNNY     49  31  49 SW8       29.88S
$$

...KEY TO REMARKS...
VSB - VISIBILITY IN MILES
WCI - WIND CHILL INDEX
HX  - HEAT INDEX

$$


USA.gov is the U.S. government's official web portal to all federal, state and local government web resources and services.